BREEZE-M DEB (TANK), 42936

Orbit data source: Space-Track

BREEZE-M DEB (TANK), 42936 is space debris in HEO originally from a launch on Mon, 11 Sep 2017 UTC launched from the Tyuratam Missile And Space Complex (TTMTR). Debris objects in space refer to the collection of defunct objects orbiting the Earth. Examples of debris include non-operational satellites, rocket bodies, and fragments generated from explosions, collisions, or faulty payload assembly.

Loading next visibility...
Identifier
42936, 2017-053C
Orbit
HEO
Country
Flag of CISCIS
Related business
Manufacturer
Khrunichev
Mission
Spacecraft
Bus & Motor
BRIZ TANK, Unknown motor
Mass
~1,000 kg wet, 1,000 kg dry
Launch date (UTC)
2017-09-11 (8 years ago)
Launch vehicle
Unknown
Launch site
Tyuratam Missile And Space Complex (TTMTR)
Object type
Payload
Rocket body
Debris
Shape & HBR
Torus, 2.0 m
Radar Cross Section
8.218 m², Large (>1 m²)

Expand to show TLE details & history
Last TLE update: 22 hours ago

TLE from 22 hours ago
0 BREEZE-M DEB (TANK)
1 42936U 17053C   25296.74670658  .00005385  00000-0  13430-2 0  9991
2 42936  49.4981  97.7401 5096888 200.6337 127.7818  5.42881770157014
Epoch: 2025-10-23T17:55Z
TLE epoch observation values (Epoch: 2025-10-23T17:55:15.448Z)
Latitude
-0.00003°
Longitude
156.51103°
Altitude
12,980.93 km
Speed
3.469 km/s
True Right ascension
06h 30m 54s
True Declination
0° 00' 00"
Sunlit
Object was in daylight at epoch
Visualization orbit readout
Latitude
Unknown
Longitude
Unknown
Altitude
Unknown
Speed
Unknown
Apparent Right ascension
Unknown
Apparent Declination
Unknown
Sunlit
N/A
Visualization observer readout
Local Sidereal Time
10:58:37
Azimuth
Unknown
Elevation
Unknown
Doppler factor
Unknown
Orbital elements
Apogee altitude
14,268.089 km
Perigee altitude
327.269 km
Semi-major axis
13,675.816 km
Eccentricity
0.50969
Inclination
49.4981°
RAAN
97.7401°
Arg. of periapsis
200.6337°
True anomaly
159.42625°
Mean anomaly
127.7818°
Eccentric anomaly
144.66962°
Mean motion
1.3571 °/min
Orbital period
265.27 mins
BSTAR
0.001343
Loading maneuver chart data...
Computing Atmospheric mass density...
Loading historical data...
Loading historical data...
Loading historical data...
Loading historical data...
Loading historical data...
Loading historical data...
Loading historical data...
Other satellites on launch #53 in the year 2017 (2017-09-11 UTC)

Documentation

Showing up to 5 results
|